Flag for Slovakia Weather past 2 weeks in Košice, Slovakia

Now
39 °F

Passing clouds.


Feels Like: 39 °F
Forecast: 36 / 53 °F
Wind: 1 mph from North

Location: Kosice - Barca

Current Time: Apr 18, 2015 at 10:16:28 PM

Latest Report: Apr 18, 2015 at 9:30 PM


Visibility: N/A

Pressure: 30.09 "Hg

Humidity: 61%

Dew point: 27 °F

Location of KošiceLocation

Historic Weather in Košice — Graph

°F

Košice temperature yesterday

Maximum temperature yesterday: 61 °F (at 11:30 AM)
Minimum temperature yesterday: 48 °F (at 2:30 AM)
Average temperature yesterday: 53 °F

Past Weeks' High & Low Weather Summary

 TemperatureHumidityPressure
High79 °F (Apr 16, 4:00 PM)94% (Apr 17, 7:00 PM)30.42 "Hg (Apr 17, 7:00 PM)
Low27 °F (Apr 4, 5:00 AM)17% (Apr 9, 4:30 PM)29.74 "Hg (Apr 16, 4:30 PM)
Average49 °F53%30.11 "Hg
* Reported Apr 3 9:00 PM — Apr 18 9:00 PM, Košice, Weather by CustomWeather, © 2015

Note: Actual official high and low records may vary slightly from our data, if they occured in-between our weather recording intervals... More about our weather records

Advertising

Košice weather history for previous 24 hours

 ConditionsComfort  
Time TempWeatherWind HumidityBarometerVisibility
9:00 PM
Sat, Apr 18
41 °FClear.7 mph57%30.07 "Hg10 mi
8:30 PM43 °FClear.14 mph53%30.07 "Hg10 mi
8:00 PM41 °FScattered clouds.12 mph57%30.07 "HgN/A
7:30 PM43 °FSunny.10 mph49%30.04 "Hg10 mi
7:00 PM45 °FPassing clouds.14 mph42%30.04 "HgN/A
6:30 PM45 °FSunny.16 mph42%30.01 "Hg10 mi
6:00 PM45 °FSunny.15 mph46%30.01 "Hg10 mi
5:30 PM48 °FSunny.18 mph34%30.01 "Hg10 mi
5:00 PM48 °FSunny.16 mph37%30.01 "Hg10 mi
4:30 PM46 °FSunny.17 mph37%30.01 "Hg10 mi
4:00 PM48 °FSunny.22 mph37%30.01 "Hg10 mi
3:30 PM46 °FSunny.18 mph40%30.01 "Hg10 mi
3:00 PM46 °FSunny.20 mph40%30.01 "Hg10 mi
2:30 PM48 °FPassing clouds.20 mph40%30.01 "HgN/A
2:00 PM48 °FSunny.21 mph34%30.01 "Hg10 mi
1:30 PM48 °FSunny.20 mph40%29.98 "Hg10 mi
1:00 PM46 °FSunny.21 mph37%29.98 "Hg10 mi
12:30 PM46 °FSunny.22 mph37%29.98 "Hg10 mi
12:00 PM48 °FSunny.18 mph43%29.98 "Hg10 mi
11:30 AM46 °FScattered clouds.18 mph46%29.98 "HgN/A
11:00 AM45 °FPartly sunny.22 mph49%29.95 "HgN/A
10:30 AM46 °FPartly sunny.15 mph53%29.95 "HgN/A
10:00 AM45 °FPartly sunny.16 mph61%29.95 "HgN/A
9:30 AM45 °FPartly sunny.16 mph57%29.92 "HgN/A
9:00 AM45 °FScattered clouds.16 mph61%29.92 "HgN/A
8:30 AM45 °FPassing clouds.20 mph61%29.92 "HgN/A
8:00 AM45 °FScattered clouds.18 mph61%29.92 "HgN/A
7:30 AM45 °FSunny.16 mph61%29.89 "Hg10 mi
7:00 AM45 °FSunny.15 mph61%29.89 "Hg10 mi
6:30 AM45 °FClear.14 mph57%29.89 "Hg10 mi
6:00 AM45 °FClear.15 mph57%29.89 "Hg10 mi
5:30 AM46 °FClear.9 mph57%29.86 "Hg10 mi
5:00 AM46 °FClear.13 mph53%29.86 "Hg10 mi
4:30 AM46 °FClear.12 mph53%29.83 "Hg10 mi
4:00 AM46 °FClear.14 mph53%29.83 "Hg10 mi
3:30 AM46 °FClear.13 mph57%29.83 "Hg10 mi
3:00 AM48 °FClear.15 mph54%29.83 "Hg10 mi
2:30 AM48 °FClear.15 mph54%29.83 "Hg10 mi
2:00 AM48 °FClear.16 mph58%29.83 "Hg10 mi
1:30 AM48 °FClear.17 mph58%29.83 "Hg10 mi
1:00 AM50 °FClear.15 mph62%29.83 "Hg10 mi
12:30 AM50 °FClear.13 mph62%29.80 "Hg10 mi
12:00 AM50 °FClear.16 mph62%29.80 "Hg10 mi
11:30 PM
Fri, Apr 17
50 °FClear.14 mph62%29.80 "Hg10 mi
11:00 PM50 °FMostly cloudy.14 mph67%29.80 "HgN/A
10:30 PM50 °FPartly cloudy.13 mph76%29.80 "HgN/A
10:00 PM50 °FLight rain. Mostly cloudy.12 mph76%29.80 "HgN/A
Weather by CustomWeather, © 2015

See weather overviewHow to use our weather pages